User: anonymous   Login
Location: Vancouver
(49.2500°N, 123.1330°W)
Time: 05:12:14
(UTC-07:00)
Language:

Cosmos 1864 Rocket - Orbit

View from above orbital plane
View from above orbital plane
View from above satellite
View from above satellite

Ground track
Ground track

The orbit data is extracted from the following two-line orbital elements,

1 18161U 87057B   15148.98607713  .00000011  00000-0 -37845-5 0  9999
2 18161 082.9346 270.1597 0029940 251.9632 249.3493 13.76889855380986
Epoch (UTC): 28 May 2015 23:39:57
Eccentricity: 0.0029940
inclination: 82.9346°
perigee height: 953 km
apogee height: 997 km
right ascension of ascending node: 270.1597°
argument of perigee: 251.9632°
revolutions per day: 13.76889855
mean anomaly at epoch: 249.3493°
orbit number at epoch: 38098

The dashed part of the orbit path shows where the satellite is in the earth's shadow,  

DLR